Location: Clermont
(50.2608°N, 4.3172°E)
Time: 09:18:29
(UTC+00:00)

OBJECT-B - Pass Details

Date: 13 August 2020
Orbit: 422 x 433 km, 97.0° (Epoch: 17 September)

Event Time Altitude Azimuth Distance (km) Brightness Sun altitude
Rises 20:53:52 0° 210° (SSW) 2,400 4.4 -15.1°
Reaches altitude 10° 20:56:42 10° 238° (WSW) 1,537 3.7 -15.4°
Maximum altitude 20:58:25 14° 270° (W) 1,340 3.9 -15.6°
Drops below altitude 10° 21:00:08 10° 302° (WNW) 1,541 4.8 -15.7°
Sets 21:03:00 0° 330° (NNW) 2,413 6.3 -16.1°
